This demonstration page uses our WeatherBlox Daily Observations layout. Learn more.

Left ArrowRight Arrow

40.92945, -100.16068

Hourly Observations for April 15, 2021

Temp ( °F °C ) Dew Point ( °F °C ) Humidity (%) Winds ( mph kmh ) Pressure ( in mb ) Visibility ( mi km ) Precip ( " mm )
12:15 am 00:15 Cloudy 35 1.8 27 -3 71 71 NE 5 7 30.36 1028 10 16 N/A
12:35 am 00:35 Cloudy 35 1.7 27 -2.6 73 73 ENE 5 7 30.35 1028 10 16 N/A
12:55 am 00:55 Cloudy 35 1.6 27 -2.6 74 74 ENE 5 7 30.35 1028 10 16 N/A
1:15 am 01:15 Mostly Cloudy 35 1.4 27 -2.6 75 75 N N/A 30.35 1028 10 16 N/A
1:35 am 01:35 Mostly Cloudy 35 1.5 27 -2.6 74 74 NE 3 6 30.35 1028 10 16 N/A
1:55 am 01:55 Cloudy 36 2 28 -2.3 73 73 N N/A 30.36 1028 10 16 N/A
2:15 am 02:15 Cloudy 35 1.8 28 -2.3 75 75 N 6 9 30.35 1028 10 16 N/A
2:35 am 02:35 Partly Cloudy 35 1.8 28 -2 76 76 N 3 6 30.35 1028 10 16 N/A
2:55 am 02:55 Clear 34 1.3 28 -2 79 79 N 3 6 30.34 1028 10 16 N/A
3:15 am 03:15 Partly Cloudy 34 1.3 28 -2 79 79 NNE 5 7 30.33 1027 10 16 N/A
3:35 am 03:35 Cloudy 35 1.5 28 -2.2 77 77 NNE 3 6 30.32 1027 10 16 N/A
3:55 am 03:55 Mostly Cloudy 34 1.1 28 -2.5 77 77 N N/A 30.33 1027 10 16 N/A
4:15 am 04:15 Mostly Cloudy 33 0.6 28 -2.3 81 81 N N/A 30.33 1027 10 16 N/A
4:35 am 04:35 Cloudy 34 1 28 -2 81 81 N N/A 30.33 1027 10 16 N/A
4:55 am 04:55 Cloudy 34 0.9 28 -2.2 80 80 N N/A 30.33 1027 10 16 N/A
5:15 am 05:15 Partly Cloudy 33 0.6 27 -2.6 79 79 N N/A 30.33 1027 10 16 N/A
5:35 am 05:35 Mostly Cloudy 33 0.4 28 -2.5 81 81 NNE 3 6 30.32 1027 10 16 N/A
5:55 am 05:55 Cloudy 32 undefined 27 -2.7 82 82 NE 7 11 30.31 1026 10 16 N/A
6:15 am 06:15 Partly Cloudy 32 undefined 27 -3 80 80 NE 5 7 30.32 1027 10 16 N/A
6:35 am 06:35 Clear 31 -0.5 26 -3.1 83 83 NNE 5 7 30.31 1027 10 16 N/A
6:55 am 06:55 Mostly Cloudy 31 -0.8 26 -3.3 83 83 NNE 6 9 30.33 1027 10 16 N/A
7:15 am 07:15 Mostly Cloudy 30 -1.1 26 -3.6 83 83 N N/A 30.34 1027 10 16 N/A
7:35 am 07:35 Mostly Cloudy 31 -0.8 27 -2.8 86 86 N N/A 30.34 1027 10 16 N/A
7:55 am 07:55 Cloudy 32 undefined 27 -2.6 83 83 N N/A 30.34 1027 10 16 N/A
8:15 am 08:15 Cloudy 33 0.5 28 -2.5 81 81 N N/A 30.32 1027 10 16 N/A
8:35 am 08:35 Cloudy 34 1.1 27 -2.6 77 77 N N/A 30.33 1027 10 16 N/A
8:55 am 08:55 Cloudy 35 1.7 28 -2.5 74 74 N N/A 30.33 1027 10 16 N/A
9:15 am 09:15 Cloudy 36 2.3 27 -2.6 70 70 N N/A 30.32 1027 10 16 N/A
9:35 am 09:35 Cloudy 37 3 28 -2.5 67 67 N N/A 30.31 1026 10 16 N/A
9:55 am 09:55 Mostly Cloudy 38 3.5 28 -2.4 66 66 E 3 6 30.30 1026 10 16 N/A
10:15 am 10:15 Partly Cloudy 40 4.6 28 -2 63 63 E 5 7 30.28 1025 10 16 N/A
10:35 am 10:35 Sunny 41 4.8 28 -2.3 60 60 E 8 13 30.27 1025 10 16 N/A
10:55 am 10:55 Partly Cloudy 41 5 27 -2.6 58 58 E 8 13 30.27 1025 10 16 N/A
11:15 am 11:15 Mostly Cloudy 41 5 27 -2.6 58 58 ESE 6 9 30.26 1025 10 16 N/A
11:35 am 11:35 Mostly Cloudy 42 5.3 27 -2.7 57 57 ESE 7 11 30.25 1024 10 16 N/A
11:55 am 11:55 Cloudy 42 5.6 27 -2.6 56 56 E 6 9 30.24 1024 10 16 N/A
12:15 pm 12:15 Cloudy 43 6.2 28 -2.3 55 55 ESE 7 11 30.23 1024 10 16 N/A
12:35 pm 12:35 Cloudy 44 6.4 28 -2.4 54 54 E 7 11 30.23 1024 10 16 N/A
12:50 pm 12:50 Cloudy 45 7.2 28 -2.1 52 52 E 9 15 30.21 1023 10 16 N/A
1:15 pm 13:15 Cloudy 44 6.6 28 -2.1 54 54 E 8 13 30.20 1023 10 16 N/A
1:35 pm 13:35 Cloudy 45 7.1 29 -1.9 53 53 E 6 9 30.19 1022 10 16 N/A
1:55 pm 13:55 Cloudy 46 8 30 -1.2 53 53 ESE 7 11 30.16 1021 10 16 N/A
2:15 pm 14:15 Cloudy 46 7.6 28 -2 51 51 E 7 11 30.16 1021 10 16 N/A
2:35 pm 14:35 Cloudy 46 7.9 29 -1.9 50 50 E 3 6 30.15 1021 10 16 N/A
2:55 pm 14:55 Cloudy 47 8.1 29 -1.8 50 50 ENE 7 11 30.14 1021 10 16 N/A
3:15 pm 15:15 Mostly Cloudy 47 8.1 28 -2 49 49 ENE 5 7 30.13 1020 10 16 N/A
3:35 pm 15:35 Mostly Cloudy 47 8.5 30 -1.3 50 50 ESE 3 6 30.12 1020 10 16 N/A
3:55 pm 15:55 Cloudy 47 8.2 29 -1.5 51 51 E 6 9 30.12 1020 10 16 N/A
4:15 pm 16:15 Cloudy 47 8.1 30 -1.3 52 52 E 7 11 30.11 1020 10 16 N/A
4:35 pm 16:35 Cloudy 47 8.4 30 -1.3 51 51 E 9 15 30.10 1019 10 16 N/A
4:55 pm 16:55 Cloudy 47 8.5 29 -1.4 50 50 ESE 5 7 30.10 1019 10 16 N/A
5:15 pm 17:15 Cloudy 47 8.3 30 -1.2 52 52 ESE 7 11 30.10 1019 10 16 N/A
5:35 pm 17:35 Cloudy 47 8.3 30 -1.1 52 52 E 7 11 30.09 1019 10 16 N/A
5:55 pm 17:55 Cloudy 47 8.5 30 -1 52 52 ENE 7 11 30.08 1018 10 16 N/A
6:15 pm 18:15 Cloudy 47 8.3 30 -1 52 52 E 8 13 30.08 1019 10 16 N/A
6:35 pm 18:35 Cloudy 47 8.5 30 -1 52 52 E 7 11 30.09 1019 10 16 N/A
6:55 pm 18:55 Cloudy 47 8.5 31 -0.7 53 53 ENE 6 9 30.10 1019 10 16 N/A
7:15 pm 19:15 Cloudy 47 8.5 31 -0.6 53 53 ENE 7 11 30.09 1019 10 16 N/A
7:35 pm 19:35 Cloudy 47 8.2 31 -0.6 54 54 ENE 8 13 30.09 1019 10 16 N/A
7:55 pm 19:55 Cloudy 46 8 31 -0.5 55 55 ENE 9 15 30.09 1019 10 16 N/A
8:15 pm 20:15 Cloudy 46 7.6 31 -0.5 57 57 ENE 8 13 30.09 1019 10 16 N/A
8:35 pm 20:35 Cloudy 46 7.5 31 -0.7 56 56 ENE 8 13 30.09 1019 10 16 N/A
8:55 pm 20:55 Cloudy 45 7.3 31 -0.6 58 58 ENE 9 15 30.09 1019 10 16 N/A
9:15 pm 21:15 Cloudy 45 7.1 31 -0.5 59 59 ENE 7 11 30.10 1019 10 16 N/A
9:35 pm 21:35 Cloudy 45 7 31 -0.5 59 59 NE 8 13 30.10 1019 10 16 N/A
9:55 pm 21:55 Cloudy 44 6.9 31 -0.5 60 60 NE 7 11 30.12 1020 10 16 N/A
10:15 pm 22:15 Cloudy 44 6.6 31 -0.6 60 60 NE 12 19 30.13 1020 10 16 N/A
10:35 pm 22:35 Cloudy with Drizzle 43 6 32 -0.2 65 65 ENE 13 20 30.15 1021 10 16 N/A
10:55 pm 22:55 Cloudy with Drizzle 42 5.5 32 undefined 68 68 ENE 9 15 30.15 1021 10 16 N/A
11:15 pm 23:15 Cloudy with Light Rain 41 4.8 33 0.3 73 73 ENE 14 22 30.16 1021 10 16 N/A
11:35 pm 23:35 Cloudy with Light Rain 39 3.8 33 0.5 79 79 NE 16 26 30.18 1022 10 16 N/A
11:55 pm 23:55 Cloudy with Light Rain 37 2.9 33 0.7 86 86 NE 14 22 30.20 1023 10 16 0.01 0.25

Powered by AerisWeather